Location: Newark
(9.4667°S, 159.8167°E)
Time: 08:25:24
(UTC+00:00)

Vanguard 2 Rocket - Visible Passes

Search period start: 22 November 2019 00:00
Search period end: 02 December 2019 00:00
Orbit: 554 x 3326 km, 32.9° (Epoch: 21 November)

Date Brightness Start Highest point End Pass type
(mag) Time Alt. Az. Time Alt. Az. Time Alt. Az.
22 Nov 8.2 07:32:10 10° SW 07:45:54 73° SSE 07:53:19 10° ENE visible
22 Nov 8.7 09:52:23 10° W 09:59:12 24° NW 09:59:23 24° NW visible
23 Nov 8.2 08:49:14 10° WSW 08:59:55 47° NW 09:03:25 27° NNE visible
24 Nov 8.2 07:46:22 10° WSW 08:00:08 76° NW 08:07:26 11° NE visible
24 Nov 9.4 10:09:51 10° WNW 10:12:50 12° NW 10:13:16 12° NW visible
25 Nov 8.8 09:04:42 10° W 09:13:31 27° NW 09:17:17 18° N visible
25 Nov 9.6 18:15:38 10° N 18:20:53 17° NE 18:27:55 10° E visible
26 Nov 8.8 08:01:02 10° WSW 08:13:56 48° NW 08:21:18 10° NNE visible
27 Nov 9.4 09:21:48 10° W 09:27:06 15° NW 09:31:11 10° NNW visible
28 Nov 9.3 08:16:32 10° W 08:27:30 30° NW 08:34:29 10° NNE visible
28 Nov 9.4 17:31:14 10° NNE 17:34:58 14° NE 17:39:39 10° ENE visible
30 Nov 9.6 08:33:27 10° W 08:41:06 18° NW 08:46:44 10° N visible
30 Nov 9.0 17:43:08 10° N 17:48:33 26° NE 17:56:49 10° E visible
01 Dec 9.2 16:47:14 10° NNE 16:49:17 11° NE 16:51:36 10° ENE visible
